Weather in Ivanovo

Belarus     52°08′49″N   25°32′06″E
temp.,
°C
wind,
m/s
gust,
m/s
humid.,
%
clouds,
%
prec.,
mm/h
press.,
hPa
HPBL,
m
18 april, sun
sun1800:00+6ese128679 0.0 101911
03:00+6n228589 0.0 101912
06:00+6nnw2389100 0.0 101951
09:00+9nnw237896 0.0 1019259
12:00+10nw348258 0.0 1019432
15:00+14n236781 0.2 1018886
18:00+14ene46699 1.8 1017903
21:00+10e5108692 2.3 1019322
19 april, mon
mon1900:00+6ene36925 0.0 1020120
03:00+6ene489331 0.0 1020199
06:00+4ene37943 0.0 1020142
09:00+8ene46785 0.0 1020363
12:00+12ene5660100 0.1 10191613
15:00+9ene5767100 0.1 10201059
18:00+9ene3773100 0.0 1019746
21:00+8ene4976100 0.1 1019388
20 april, tue
tue2000:00+7ne3881100 0.0 1018237
03:00+7ne4787100 0.1 1017203
06:00+6ne489491 0.3 1017298
09:00+7ene578189 0.3 1017543
12:00+10ne5662100 0.2 10151444
15:00+11ne455854 0.4 10141439
18:00+9ne566261 0.2 10131179
21:00+6ne22745 0.2 101418
21 april, wed
wed2100:00+4nnw11815 0.0 101310
03:00+3wnw228327 0.0 101319
06:00+3w338968 0.1 101252
09:00+7w3581100 0.3 1012321
12:00+11wnw4562100 0.6 10111203
15:00+13w5651100 0.9 10101870
18:00+13w4657100 0.1 10101310
21:00+8wsw337752 0.6 101142
22 april, thu
thu2200:00+6sw34855 0.0 101257
03:00+5sw36879 0.0 101297
06:00+4ssw499052 0.0 1012172
09:00+9wsw588082 0.1 1012513
12:00+8w4688100 0.9 1013578
15:00+9wsw5866100 0.9 10131180
18:00+10wsw5962100 0.1 10131587
21:00+6w496974 0.1 1014255